World > North America > United States > Washington

Hourly Camano City, WA Regional Weather

Feedback E-mail the Weather

Quick WX

Camano City, WA Weather Maps

°F °C°F °C
Camano City Weather Map
UTC Time: 6/30/2022, 20:13
Your Time:

Camano City, WA Regional Weather

Expires:202206302100;;456688
ASUS46 KSEW 302010
RWRWA 

WASHINGTON REGIONAL WEATHER ROUNDUP
NATIONAL WEATHER SERVICE SEATTLE WA
100 PM PDT THU JUN 30 2022

NOTE:"FAIR" INDICATES FEW OR NO CLOUDS BELOW 12,000 FEET WITH NO 
SIGNIFICANT WEATHER AND/OR OBSTRUCTIONS TO VISIBILITY.


WAZ507-509-555>559-302100-
SEATTLE, TACOMA, EVERETT, AND VICINITY
  
CITY           SKY/WX    TMP DP  RH WIND       PRES   REMARKS
EVERETT        SUNNY     67  52  58 VRB6      30.14S                  
BOEING FIELD   MOSUNNY   69  53  56 NW7       30.12F                  
RENTON         MOSUNNY   70  53  54 NW9       30.11F                  
SEATAC AIRPORT PTSUNNY   69  53  56 W12       30.12F                  
JBLM-MCCHORD   MOSUNNY   72  53  50 N7        30.12F                  
PUYALLUP       FAIR      72  55  56 NW6       30.13S                  
BREMERTON      MOSUNNY   69  54  58 VRB7      30.13F                  
JBLM-FT LEWIS  MOSUNNY   71  51  49 W10       30.10F                  
TACOMA NARROWS MOSUNNY   69  52  54 VRB6      30.13F                  
$$
 

SKY/WX - Weather  TMP - Temperature  DP - Dew Point  RH - Humidity
WIND - Wind Direction/Speed PRES - Barometric Pressure VSB - Visibility
WCI - Wind Chill Index E13G22 Wind - East Wind 13 mph/Gusts of 22 mph

Trending Headlines

Camano City Radar Loop



Camano City Quick Facts


National Two Day Weather Forecast


E-mail the Camano City Weather Forecast

Voice your opinion or tell us about page issues...